Date,TemperatureHighF,TemperatureAvgF,TemperatureLowF,DewpointHighF,DewpointAvgF,DewpointLowF,HumidityHigh,HumidityAvg,HumidityLow,PressureMaxIn,PressureMinIn,WindSpeedMaxMPH,WindSpeedAvgMPH,GustSpeedMaxMPH,PrecipitationSumIn
2013-4-1,42.5,35.6,28.7,28.2,21.8,16.4,83,59,36,30.24,29.97,9,6,14,0.00
2013-4-2,46.7,34.5,21.9,23.3,19.0,11.9,85,57,25,30.34,30.24,9,3,13,0.00
2013-4-3,50.2,38.2,26.2,22.4,19.5,16.2,74,49,27,30.45,30.30,10,5,14,0.00
2013-4-4,60.0,46.6,34.9,28.0,24.3,20.7,66,43,25,30.30,30.01,8,3,9,0.00
2013-4-5,59.4,48.2,36.8,35.6,30.1,24.1,84,53,29,30.22,30.04,12,5,15,0.00
2013-4-6,70.6,55.7,42.7,52.1,37.0,25.1,78,51,32,30.07,29.65,23,13,26,0.03
2013-4-7,69.6,56.2,39.7,46.8,43.5,38.1,94,65,40,29.96,29.74,11,3,12,0.00
2013-4-8,73.3,63.6,56.8,60.2,56.2,43.5,94,78,58,29.89,29.61,20,8,21,0.39
2013-4-9,77.7,68.0,60.3,64.2,60.3,54.8,90,77,57,29.90,29.81,19,9,23,0.00
2013-4-10,59.2,46.2,41.5,53.7,44.5,39.9,97,94,82,29.93,29.70,19,10,22,2.06
2013-4-11,50.2,45.0,37.8,46.9,42.3,32.6,97,91,80,29.71,29.62,22,8,24,0.07
2013-4-12,44.2,39.5,37.2,37.5,35.0,32.5,93,84,70,29.93,29.64,12,7,17,0.00
2013-4-13,51.9,43.6,35.2,38.8,33.4,25.8,87,68,51,30.01,29.92,8,5,14,0.00
2013-4-14,74.0,59.8,46.0,55.3,47.4,37.6,83,65,43,29.95,29.60,26,14,30,0.00
2013-4-15,63.8,54.3,44.7,56.0,50.6,41.1,97,88,68,30.02,29.68,22,6,27,0.47
2013-4-16,52.0,46.7,41.3,44.5,39.8,37.1,95,78,58,30.21,29.96,11,4,12,0.29
2013-4-17,58.3,49.0,44.4,57.5,45.5,36.5,97,88,70,30.23,29.69,19,11,20,3.62
2013-4-18,62.3,53.2,38.6,61.1,51.5,33.1,97,94,80,29.73,29.46,22,11,24,2.19
2013-4-19,41.2,37.9,34.9,34.8,31.9,29.9,88,79,70,30.03,29.63,13,8,16,0.00
2013-4-20,49.6,39.7,30.2,32.1,28.7,25.5,87,67,41,30.38,30.04,6,3,12,0.00
2013-4-21,57.3,46.8,37.5,44.9,36.8,30.7,79,68,57,30.46,30.28,18,12,21,0.00
2013-4-22,67.7,56.1,43.7,49.9,42.1,36.5,80,61,37,30.30,30.02,15,9,23,0.00
2013-4-23,56.4,45.4,38.1,50.9,43.4,36.8,95,93,80,30.06,29.93,9,4,15,0.98
2013-4-24,50.6,42.4,36.0,37.1,34.4,31.1,95,75,53,30.18,29.99,11,5,14,0.03
2013-4-25,56.7,47.6,39.6,36.4,32.9,25.8,84,58,38,30.33,30.14,12,6,19,0.00
2013-4-26,62.8,52.7,41.8,50.8,43.0,33.3,89,70,60,30.34,30.26,17,10,20,0.00
2013-4-27,62.0,53.6,45.6,52.7,48.1,44.0,96,83,56,30.30,29.99,12,5,16,0.00
2013-4-28,68.3,57.8,52.2,55.7,52.7,50.7,97,84,60,29.99,29.85,10,4,13,0.00
2013-4-29,76.0,62.0,46.5,62.7,55.3,45.4,96,80,59,29.93,29.75,20,11,26,0.00
2013-4-30,86.0,71.9,59.9,64.8,59.3,53.1,94,68,33,29.96,29.76,18,12,23,0.00